Flag for U.S.A. Weather past 2 weeks in Acworth, Georgia, U.S.A.

Now
61 °F

Clear.


Feels Like: 61 °F
Forecast: 48 / 68 °F
Wind: 10 mph from Northwest

Location: Cobb County-McCollum Field Airport

Current Time: Apr 20, 2015 at 11:43:12 PM

Latest Report: Apr 20, 2015 at 10:47 PM


Visibility: 10 mi

Pressure: 29.78 "Hg

Humidity: 59%

Dew point: 46 °F

Location of AcworthLocation

Historic Weather in Acworth — Graph

°F

Acworth temperature yesterday

Maximum temperature yesterday: 72 °F (at 3:50 PM)
Minimum temperature yesterday: 64 °F (at 6:47 AM)
Average temperature yesterday: 69 °F

Past Weeks' High & Low Weather Summary

 TemperatureHumidityPressure
High86 °F (Apr 8, 3:46 PM)100% (Apr 7, 8:48 AM)30.29 "Hg (Apr 7, 8:48 AM)
Low52 °F (Apr 11, 7:47 AM)29% (Apr 11, 7:47 PM)29.69 "Hg (Apr 20, 4:47 PM)
Average67 °F76%30.08 "Hg
* Reported Apr 5 9:47 PM — Apr 20 9:48 PM, Acworth, Weather by CustomWeather, © 2015

Note: Actual official high and low records may vary slightly from our data, if they occured in-between our weather recording intervals... More about our weather records

Advertising

Acworth weather history for previous 24 hours

 ConditionsComfort  
Time TempWeatherWind HumidityBarometerVisibility
9:48 PM
Mon, Apr 20
63 °FClear.12 mph56%29.84 "Hg10 mi
8:50 PM64 °FScattered clouds.12 mph52%29.79 "Hg10 mi
7:53 PM66 °FScattered clouds.12 mph52%29.77 "Hg10 mi
6:47 PM72 °FScattered clouds.14 mph50%29.74 "Hg10 mi
5:47 PM73 °FPartly sunny.20 mph50%29.71 "Hg10 mi
4:47 PM73 °FBroken clouds.12 mph53%29.69 "Hg10 mi
3:58 PM73 °FScattered clouds.13 mph61%29.71 "Hg10 mi
2:47 PM70 °FPartly sunny.14 mph73%29.72 "Hg10 mi
1:47 PM72 °FPartly sunny.14 mph69%29.75 "Hg10 mi
12:47 PM73 °FPartly sunny.14 mph65%29.76 "Hg10 mi
11:49 AM72 °FBroken clouds.16 mph69%29.77 "Hg10 mi
10:55 AM72 °FPartly sunny.12 mph73%29.76 "Hg10 mi
9:47 AM66 °FPartly sunny.12 mph88%29.77 "Hg10 mi
8:47 AM64 °FPartly sunny.6 mph94%29.74 "Hg10 mi
7:47 AM61 °FPassing clouds.6 mph94%29.75 "Hg10 mi
6:47 AM64 °FMild.N/A94%29.74 "HgN/A
Weather by CustomWeather, © 2015

See weather overviewHow to use our weather pages